Погода в Мекегах

Россия / Республика Дагестан     42°23′53″N   47°27′37″E
темп.,
°C
ветер,
м/с
пор.,
м/с
влажн.,
%
обл.,
%
осадки,
мм/ч
давл.,
гПа
погр.,
м
25 июня, сб
сб2500:00+14ю229052 0.1 101015
03:00+13ююз118989 0.1 101010
06:00+16вюв117498 0.0 1010124
09:00+19св3172100 0.0 1010666
12:00+21св426889 0.0 10091043
15:00+19всв327895 0.1 1009661
18:00+18св2282100 0.3 1010374
21:00+16з2289100 0.4 101143
26 июня, вс
вс2600:00+16зюз2286100 0.0 101027
03:00+15юз1188100 0.6 101011
06:00+17в118179 0.0 1009122
09:00+20св2171100 0.0 1008622
12:00+21св3263100 0.0 1008951
15:00+22с3361100 0.1 10071097
18:00+19зсз457199 0.9 1008642
21:00+17зюз4481100 1.8 101155
27 июня, пн
пн2700:00+16зюз4583100 0.4 101083
03:00+16зюз44820 0.4 100951
06:00+18з45790 0.0 1010210
09:00+23сз34550 0.0 1010809
12:00+24ссз66576 0.0 10101061
15:00+23ссз896364 0.0 10111240
18:00+21сз587121 0.0 1011677
21:00+17з578343 0.0 1012153
28 июня, вт
вт2800:00+18з51075100 0.0 1011244
03:00+16з4676100 0.0 1011132
06:00+18з46710 0.0 1010278
09:00+22сз57470 0.0 1009774
12:00+23ссз67450 0.0 10091111
15:00+23с89470 0.0 10101434
18:00+19ссз46673 0.0 1012881
21:00+15з45812 0.1 101473
29 июня, ср
ср2900:00+15зюз4579100 0.7 101480
03:00+16зюз337138 0.7 101341
06:00+17зюз33620 0.0 101485
09:00+22с32400 0.0 10131210
12:00+23ссв434043 0.0 10131792
15:00+22всв325045 0.1 10131235
18:00+18всв327970 0.1 1014465
21:00+16в129894 0.2 1015139